This is the latest recevied weather packets stored in our database for station/object K1LVA. If no packets are shown the sender has not sent any weather packets the latest 10 day(s).
| Time | Temp. | Humidity | Pressure | Rain* | Wind** | Luminosity | Snow |
|---|---|---|---|---|---|---|---|
| 1777551556 | 17.22° C | 99% | 1010.8 hPa | 0 mm | - | 54 W/m² | - |
| 1777551252 | 17.22° C | 99% | 1010.7 hPa | 1.27 mm | - | 35 W/m² | - |
| 1777550949 | 17.78° C | 99% | 1010.8 hPa | 1.27 mm | - | 24 W/m² | - |
| 1777550646 | 17.78° C | 99% | 1010.5 hPa | 1.27 mm | - | 26 W/m² | - |
| 1777550342 | 17.78° C | 99% | 1010.3 hPa | 0 mm | - | 40 W/m² | - |
| 1777550038 | 17.78° C | 99% | 1010.4 hPa | 0 mm | - | 26 W/m² | - |
| 1777549735 | 17.78° C | 99% | 1010.3 hPa | 0 mm | - | 16 W/m² | - |
| 1777549435 | 17.78° C | 99% | 1010.4 hPa | 0 mm | - | 13 W/m² | - |
| 1777549132 | 17.78° C | 99% | 1010.2 hPa | 0 mm | - | 14 W/m² | - |
| 1777548828 | 17.78° C | 99% | 1009.9 hPa | 0 mm | - | 17 W/m² | - |
| 1777548526 | 17.78° C | 99% | 1009.9 hPa | 0 mm | - | 13 W/m² | - |
| 1777548222 | 17.78° C | 99% | 1010.1 hPa | 0 mm | - | 6 W/m² | - |
| 1777547919 | 17.78° C | 99% | 1010 hPa | 0 mm | - | 0 W/m² | - |
| 1777547615 | 17.78° C | 99% | 1009.9 hPa | 0 mm | - | 2 W/m² | - |
| 1777547312 | 17.78° C | 99% | 1010 hPa | 0 mm | - | 1 W/m² | - |
| 1777547009 | 17.78° C | 99% | 1009.9 hPa | 0 mm | - | 0 W/m² | - |
| 1777546707 | 17.78° C | 99% | 1009.6 hPa | 0 mm | - | 0 W/m² | - |
| 1777546403 | 18.33° C | 99% | 1009.7 hPa | 0 mm | - | 0 W/m² | - |
| 1777546100 | 18.33° C | 99% | 1009.5 hPa | 1.78 mm | - | 0 W/m² | - |
| 1777545796 | 18.33° C | 99% | 1009.5 hPa | 1.78 mm | - | 0 W/m² | - |
| 1777545493 | 18.33° C | 99% | 1009.8 hPa | 4.83 mm | - | 0 W/m² | - |
| 1777545190 | 18.89° C | 99% | 1009.6 hPa | 4.83 mm | - | 0 W/m² | - |
| 1777544888 | 18.33° C | 99% | 1009.9 hPa | 1.27 mm | - | 0 W/m² | - |
| 1777544583 | 18.33° C | 99% | 1010 hPa | 7.11 mm | - | 0 W/m² | - |
| 1777544280 | 18.89° C | 99% | 1009.5 hPa | 13.72 mm | - | 0 W/m² | - |
* Rain latest hour (hover to see other rain measurements)
** Current wind speed in m/s (hover to see current wind gust speed)